Showing default

INTELSAT 2-F2, 2639

Orbit data source: Space-Track

INTELSAT 2-F2, 2639 is a payload satellite owned by INTELSAT (US) in GEO that was launched on Wed, 11 Jan 1967 UTC via a THOR DELTA E1 launch vehicle from the Air Force Eastern Test Range (AFETR). Payload-class satellites include a variety of spacecraft equipped with specific instruments for various scientific and technological missions. These include communications satellites like Starlink; space stations such as the ISS; scientific satellites like the Hubble; Earth observation satellites from companies like Planet Labs, Umbra, and HawkEye 360; GPS; miniature CubeSats for education and research; and military/defense satellites.

Loading next visibility...
Identifier
2639, 1967-001A
Orbit
GEO
Country
Flag of USUS / ITSO
Related business
Manufacturer
Hughes
Mission
Non-operational spacecraft
Bus & Motor
HS-303, SVM-1
Mass
163 kg wet, ~65 kg dry
Launch date (UTC)
1967-01-11 (59 years ago)
Launch vehicle
THOR DELTA E1
Launch site
Air Force Eastern Test Range (AFETR)
Object type
Payload
Rocket body
Debris
Shape & HBR
Unknown
Radar Cross Section
Large (>1 m²)

Expand to show TLE details & history
Last TLE update: 7 hours ago

TLE from 7 hours ago
0 INTELSAT 2-F2
1 02639U 67001A   26178.22423094 -.00000273  00000-0  00000-0 0  9997
2 02639   3.2779  77.1112 0005360 203.8371  15.8511  1.00178278119340
Epoch: 2026-06-27T05:22Z
TLE epoch observation values (Epoch: 2026-06-27T05:22:53.553Z)
Latitude
-2.11984°
Longitude
-59.28552°
Altitude
35,790.783 km
Speed
3.075 km/s
True Right ascension
19h 47m 06s
True Declination
-2° 07' 04"
Sunlit
Object was in daylight at epoch
Visualization orbit readout
Latitude
Unknown
Longitude
Unknown
Altitude
Unknown
Speed
Unknown
Apparent Right ascension
Unknown
Apparent Declination
Unknown
Sunlit
N/A
Visualization observer readout
Local Sidereal Time
23:27:48
Azimuth
Unknown
Elevation
Unknown
Doppler factor
Unknown
Orbital elements
Apogee altitude
35,836.508 km
Perigee altitude
35,791.278 km
Semi-major axis
42,192.03 km
Eccentricity
0.00054
Inclination
3.2779°
RAAN
77.1112°
Arg. of periapsis
203.8371°
True anomaly
15.86789°
Mean anomaly
15.8511°
Eccentric anomaly
15.85949°
Mean motion
0.25044 °/min
Orbital period
1,437.49 mins
BSTAR
0
Loading maneuver chart data...
Computing Atmospheric mass density...

Documentation

Showing up to 5 results
|